, AK

(GMT )
Deadhorse

Weather History for PASC - September, 2012

Change the Weather History Date:

Thursday, September 6, 2012

  Actual Average Record
Temperature  
Mean Temperature 42 °F -  
Max Temperature 48 °F 41 °F 64 °F (1986)
Min Temperature 35 °F 31 °F 26 °F (1991)
Degree Days  
Heating Degree Days 24    
Moisture  
Dew Point 39 °F    
Average Humidity 87    
Maximum Humidity 100    
Minimum Humidity 76    
Precipitation  
Precipitation 0.02 in - - ()
Sea Level Pressure  
Sea Level Pressure 29.44 in    
Wind  
Wind Speed 17 mph (WSW)    
Max Wind Speed 30 mph    
Max Gust Speed 37 mph    
Visibility 9 miles    
Events Rain    
Averages and records for this station are not official NWS values.
T = Trace of Precipitation, MM = Missing Value Source: NWS Daily Summary

Daily Weather History Graph

Daily Weather History Graph

Search for Another Location

Airport or City:

Trip Planner

Search our weather history database for the weather conditions in past years. The results will help you decide how hot, cold, wet, or windy it might be!

Date:

Astronomy

Sep. 06, 2012 Rise Set
Actual Time 6:32 AM AKDT 9:09 PM AKDT
Civil Twilight 5:21 AM AKDT 10:18 PM AKDT
Nautical Twilight 3:25 AM AKDT 12:09 AM AKDT
Astronomical Twilight Sun does not set Sun does not set
Moon No Moon Rise No Moon Set
Length of Visible Light 16h 56m
Length of Day
14h 36m
Waning Gibbous, 66% of the Moon is Illuminated
Sep 6
Waning Gibbous
Sep 8
Last Quarter
Sep 15
New
Sep 22
First Quarter
Sep 29
Full

Hourly Weather History & Observations

Time (AKDT) Temp. Windchill Dew Point Humidity Pressure Visibility Wind Dir Wind Speed Gust Speed Precip Events Conditions
12:53 AM 46.9 °F - 42.1 °F 83% 29.29 in 10.0 mi SW 9.2 mph - 0.00 in   Overcast
1:53 AM 46.0 °F 41.0 °F 41.0 °F 83% 29.29 in 10.0 mi SW 10.4 mph - N/A   Mostly Cloudy
2:53 AM 46.0 °F 41.0 °F 41.0 °F 83% 29.31 in 10.0 mi SSW 10.4 mph - N/A   Mostly Cloudy
3:53 AM 45.0 °F 38.5 °F 39.9 °F 82% 29.31 in 10.0 mi SSW 13.8 mph - N/A   Overcast
4:53 AM 46.0 °F 39.9 °F 39.9 °F 79% 29.32 in 10.0 mi SW 13.8 mph - N/A   Overcast
5:53 AM 46.0 °F 39.9 °F 39.9 °F 79% 29.33 in 10.0 mi SW 13.8 mph - N/A   Mostly Cloudy
6:53 AM 46.0 °F 40.2 °F 41.0 °F 83% 29.34 in 10.0 mi SW 12.7 mph - N/A   Mostly Cloudy
7:53 AM 44.1 °F 37.4 °F 41.0 °F 89% 29.35 in 10.0 mi WSW 13.8 mph - 0.00 in   Overcast
8:53 AM 46.0 °F 39.6 °F 42.1 °F 86% 29.36 in 10.0 mi WSW 15.0 mph - N/A   Overcast
9:23 AM 46.4 °F 40.4 °F 42.8 °F 87% 29.36 in 10.0 mi WSW 13.8 mph - N/A   Overcast
9:53 AM 46.9 °F - 43.0 °F 86% 29.38 in 10.0 mi WSW 18.4 mph - N/A   Overcast
10:53 AM 46.9 °F - 43.0 °F 86% 29.39 in 10.0 mi WSW 18.4 mph - N/A   Overcast
11:53 AM 48.0 °F - 42.1 °F 80% 29.41 in 10.0 mi WSW 25.3 mph 31.1 mph N/A   Overcast
12:53 PM 46.9 °F - 43.0 °F 86% 29.42 in 10.0 mi WSW 19.6 mph - 0.00 in   Overcast
1:01 PM 46.4 °F 38.7 °F 42.8 °F 87% 29.42 in 10.0 mi West 20.7 mph - N/A   Overcast
1:53 PM 46.9 °F - 42.1 °F 83% 29.44 in 10.0 mi West 23.0 mph 28.8 mph N/A   Overcast
2:07 PM 44.6 °F 37.2 °F 42.8 °F 93% 29.44 in 10.0 mi West 17.3 mph 29.9 mph N/A   Overcast
2:53 PM 46.0 °F 38.0 °F 39.0 °F 76% 29.46 in 7.0 mi West 21.9 mph 31.1 mph 0.00 in   Mostly Cloudy
3:53 PM 44.1 °F 34.8 °F 39.0 °F 82% 29.48 in 10.0 mi WSW 25.3 mph 35.7 mph N/A   Overcast
4:53 PM 42.1 °F 31.7 °F 36.0 °F 79% 29.49 in 10.0 mi West 27.6 mph 35.7 mph N/A   Overcast
5:53 PM 39.9 °F 28.4 °F 35.1 °F 83% 29.52 in 10.0 mi West 29.9 mph 36.8 mph N/A   Overcast
6:53 PM 37.0 °F 25.1 °F 35.1 °F 93% 29.54 in 6.0 mi West 26.5 mph 34.5 mph 0.00 in Rain Light Rain
7:26 PM 35.6 °F 23.7 °F 35.6 °F 100% 29.55 in 8.0 mi West 24.2 mph 32.2 mph 0.00 in Rain Light Rain
7:53 PM 36.0 °F 23.5 °F 34.0 °F 93% 29.56 in 4.0 mi West 27.6 mph 33.4 mph 0.00 in Rain Light Rain
8:53 PM 35.1 °F 23.5 °F 34.0 °F 96% 29.59 in 8.0 mi WSW 21.9 mph 31.1 mph 0.01 in Rain Light Rain
9:12 PM 35.6 °F 23.2 °F 33.8 °F 93% 29.60 in 7.0 mi WSW 26.5 mph 35.7 mph 0.00 in Rain Light Rain
9:53 PM 35.1 °F 22.5 °F 34.0 °F 96% 29.62 in 10.0 mi West 26.5 mph 32.2 mph 0.01 in Rain Light Rain
10:53 PM 36.0 °F 23.7 °F 34.0 °F 93% 29.65 in 10.0 mi West 26.5 mph 35.7 mph 0.00 in   Overcast
11:53 PM 36.0 °F 23.7 °F 34.0 °F 93% 29.68 in 8.0 mi West 26.5 mph 33.4 mph N/A   Overcast